Change the Weather History Date:

Tuesday, July 31, 2012

  Actual Average Record
Temperature  
Mean Temperature 80 °F 83 °F  
Max Temperature 87 °F 92 °F 101 °F (1990)
Min Temperature 72 °F 73 °F 64 °F (1997)
Degree Days  
Heating Degree Days 0 0  
Month to date heating degree days 0 0  
Since 1 June heating degree days 0 0  
Since 1 July heating degree days 0 0  
Cooling Degree Days 15 18  
Month to date cooling degree days 595 546  
Year to date cooling degree days 1637 1395  
Since 1 June cooling degree days 973 992  
Growing Degree Days 30 (Base 50)    
Moisture  
Dew Point 73 °F    
Average Humidity 80    
Maximum Humidity 94    
Minimum Humidity 65    
Precipitation  
Precipitation T in 0.21 in 3.74 in (1918)
Month to date precipitation 5.96 5.60  
Year to date precipitation 26.06 27.81  
Sea Level Pressure  
Sea Level Pressure 29.95 in    
Wind  
Wind Speed 5 mph (SSW)    
Max Wind Speed 13 mph    
Max Gust Speed 17 mph    
Visibility 7 miles    
Events      
T = Trace of Precipitation, MM = Missing Value Source: NWS Daily Summary

Daily Weather History Graph

Daily Weather History Graph

Search for Another Location

Airport or City:

Trip Planner

Search our weather history database for the weather conditions in past years. The results will help you decide how hot, cold, wet, or windy it might be!

Date:

Astronomy

Jul. 31, 2012 Rise Set
Actual Time 6:39 AM EDT 8:22 PM EDT
Civil Twilight 6:12 AM EDT 8:49 PM EDT
Nautical Twilight 5:40 AM EDT 9:21 PM EDT
Astronomical Twilight 5:06 AM EDT 9:54 PM EDT
Moon 7:10 PM EDT (7/31) 5:00 AM EDT (7/31)
Length of Visible Light 14h 36m
Length of Day
13h 42m
Waxing Gibbous, 97% of the Moon is Illuminated
Jul 31
Waxing Gibbous
Aug 1
Full
Aug 9
Last Quarter
Aug 17
New
Aug 24
First Quarter

Hourly Weather History & Observations

Time (EDT) Temp. Heat Index Dew Point Humidity Pressure Visibility Wind Dir Wind Speed Gust Speed Precip Events Conditions
12:53 AM 72.0 °F - 70.0 °F 93% 29.98 in 10.0 mi Calm Calm - N/A   Mostly Cloudy
1:53 AM 73.0 °F - 70.0 °F 90% 29.98 in 10.0 mi ESE 3.5 mph - N/A   Scattered Clouds
2:53 AM 73.0 °F - 71.1 °F 93% 29.96 in 10.0 mi Calm Calm - N/A   Scattered Clouds
3:40 AM 73.4 °F - 69.8 °F 88% 29.94 in 10.0 mi Calm Calm - N/A   Overcast
3:53 AM 73.0 °F - 70.0 °F 90% 29.93 in 10.0 mi SSE 4.6 mph - N/A   Overcast
4:15 AM 73.4 °F - 71.6 °F 94% 29.93 in 10.0 mi SSE 4.6 mph - N/A   Overcast
4:48 AM 73.4 °F - 71.6 °F 94% 29.92 in 10.0 mi Calm Calm - N/A   Overcast
4:53 AM 73.9 °F - 72.0 °F 93% 29.92 in 10.0 mi SSE 3.5 mph - N/A   Overcast
5:19 AM 73.4 °F - 71.6 °F 94% 29.92 in 10.0 mi SSE 3.5 mph - N/A   Overcast
5:53 AM 75.0 °F - 73.0 °F 94% 29.94 in 9.0 mi South 4.6 mph - N/A   Overcast
6:32 AM 75.2 °F - 73.4 °F 94% 29.96 in 1.0 mi South 5.8 mph - N/A   Overcast
6:45 AM 75.2 °F - 73.4 °F 94% 29.97 in 0.8 mi SSW 5.8 mph - N/A   Overcast
6:53 AM 75.0 °F - 73.0 °F 94% 29.97 in 0.8 mi SSW 5.8 mph - N/A   Overcast
7:53 AM 75.0 °F - 73.9 °F 96% 29.97 in 0.8 mi SSW 4.6 mph - N/A   Overcast
7:57 AM 75.2 °F - 73.4 °F 94% 29.96 in 0.5 mi SSW 5.8 mph - N/A   Overcast
8:26 AM 75.2 °F - 73.4 °F 94% 29.98 in 1.0 mi South 5.8 mph - N/A   Overcast
8:53 AM 75.0 °F - 73.0 °F 94% 29.98 in 1.0 mi South 5.8 mph - N/A   Overcast
9:24 AM 75.2 °F - 73.4 °F 94% 29.98 in 3.0 mi South 3.5 mph - N/A   Overcast
9:27 AM 75.2 °F - 73.4 °F 94% 29.98 in 3.0 mi South 5.8 mph - N/A   Overcast
9:53 AM 75.9 °F - 73.9 °F 94% 29.97 in 6.0 mi South 5.8 mph - N/A   Overcast
10:53 AM 77.0 °F - 73.9 °F 90% 29.96 in 8.0 mi SSW 5.8 mph - N/A   Overcast
11:39 AM 78.8 °F - 73.4 °F 83% 29.96 in 10.0 mi SW 5.8 mph - N/A   Overcast
11:53 AM 79.0 °F - 73.9 °F 84% 29.96 in 8.0 mi SSW 4.6 mph - N/A   Overcast
12:53 PM 80.1 °F 84.5 °F 73.9 °F 81% 29.97 in 7.0 mi WSW 5.8 mph - N/A   Overcast
1:33 PM 80.6 °F 85.4 °F 73.4 °F 79% 29.98 in 9.0 mi WNW 6.9 mph - N/A   Overcast
1:53 PM 82.9 °F 90.2 °F 75.0 °F 77% 29.96 in 9.0 mi West 4.6 mph - N/A   Overcast
2:08 PM 84.2 °F 92.3 °F 75.2 °F 74% 29.95 in 9.0 mi Variable 3.5 mph - N/A   Scattered Clouds
2:53 PM 84.9 °F 93.3 °F 75.0 °F 72% 29.94 in 9.0 mi Variable 4.6 mph - N/A   Mostly Cloudy
3:53 PM 86.0 °F 93.8 °F 73.9 °F 67% 29.91 in 9.0 mi NW 5.8 mph - N/A   Mostly Cloudy
4:53 PM 86.0 °F 95.1 °F 75.0 °F 70% 29.91 in 10.0 mi SW 6.9 mph - 0.00 in   Mostly Cloudy
5:53 PM 82.9 °F 88.0 °F 72.0 °F 69% 29.91 in 10.0 mi South 10.4 mph - N/A   Mostly Cloudy
6:53 PM 82.0 °F 86.7 °F 72.0 °F 71% 29.91 in 10.0 mi South 4.6 mph - N/A   Mostly Cloudy
7:53 PM 81.0 °F 85.8 °F 73.0 °F 77% 29.91 in 10.0 mi South 5.8 mph - N/A   Mostly Cloudy
8:53 PM 80.1 °F 84.5 °F 73.9 °F 81% 29.92 in 10.0 mi SW 3.5 mph - N/A   Mostly Cloudy
9:53 PM 79.0 °F - 73.9 °F 84% 29.93 in 10.0 mi Calm Calm - N/A   Overcast
10:53 PM 79.0 °F - 73.9 °F 84% 29.94 in 10.0 mi SSW 3.5 mph - N/A   Mostly Cloudy
11:53 PM 78.1 °F - 73.9 °F 87% 29.96 in 10.0 mi SW 3.5 mph - N/A   Overcast